Time,TemperatureF,DewpointF,PressureIn,WindDirection,WindDirectionDegrees,WindSpeedMPH,WindSpeedGustMPH,Humidity,HourlyPrecipIn,Conditions,Clouds,dailyrainin,SoftwareType,DateUTC
2013-02-04 00:01:00,29.0,17.0,30.09,WNW,300,0.0,0.0,60,0.00,,,0.23,,2013-02-04 00:01:00,
2013-02-04 00:11:00,29.0,17.0,30.09,WNW,300,0.0,0.0,60,0.00,,,0.23,,2013-02-04 00:11:00,
2013-02-04 00:22:00,29.0,16.0,30.09,WNW,300,0.0,0.0,59,0.00,,,0.23,,2013-02-04 00:22:00,
2013-02-04 00:32:00,29.0,18.0,30.09,WNW,300,0.0,0.0,62,0.00,,,0.23,,2013-02-04 00:32:00,
2013-02-04 00:41:00,29.0,18.0,30.09,WNW,300,0.0,0.0,62,0.00,,,0.23,,2013-02-04 00:41:00,
2013-02-04 00:51:00,28.0,16.0,30.09,WNW,300,0.0,0.0,61,0.00,,,0.23,,2013-02-04 00:51:00,
2013-02-04 01:01:00,28.0,16.0,30.08,WNW,300,0.0,0.0,61,0.00,,,0.23,,2013-02-04 01:01:00,
2013-02-04 01:11:00,28.0,16.0,30.08,WNW,300,0.0,0.0,61,0.00,,,0.23,,2013-02-04 01:11:00,
2013-02-04 01:21:00,28.0,16.0,30.07,WNW,300,0.0,0.0,61,0.00,,,0.23,,2013-02-04 01:21:00,
2013-02-04 01:31:00,28.0,17.0,30.08,WNW,300,0.0,0.0,62,0.00,,,0.23,,2013-02-04 01:31:00,
2013-02-04 01:41:00,28.0,17.0,30.08,WNW,300,0.0,0.0,62,0.00,,,0.23,,2013-02-04 01:41:00,
2013-02-04 01:52:00,28.0,17.0,30.07,WNW,300,1.0,2.0,62,0.00,,,0.23,,2013-02-04 01:52:00,
2013-02-04 02:02:00,29.0,17.0,30.06,WNW,298,0.0,3.0,61,0.00,,,0.23,,2013-02-04 02:02:00,
2013-02-04 02:11:00,29.0,17.0,30.06,WNW,298,0.0,3.0,61,0.00,,,0.23,,2013-02-04 02:11:00,
2013-02-04 02:21:00,29.0,17.0,30.06,SSE,157,3.0,5.0,61,0.00,,,0.23,,2013-02-04 02:21:00,
2013-02-04 02:31:00,29.0,17.0,30.06,SE,146,3.0,4.0,61,0.00,,,0.23,,2013-02-04 02:31:00,
2013-02-04 02:41:00,29.0,17.0,30.06,SE,146,3.0,4.0,61,0.00,,,0.23,,2013-02-04 02:41:00,
2013-02-04 02:52:00,29.0,18.0,30.05,SE,144,3.0,6.0,62,0.00,,,0.23,,2013-02-04 02:52:00,
2013-02-04 03:02:00,28.0,17.0,30.04,SE,144,3.0,6.0,64,0.00,,,0.23,,2013-02-04 03:02:00,
2013-02-04 03:11:00,28.0,17.0,30.04,SE,144,3.0,6.0,64,0.00,,,0.23,,2013-02-04 03:11:00,
2013-02-04 03:21:00,28.0,17.0,30.04,SE,144,3.0,5.0,64,0.00,,,0.23,,2013-02-04 03:21:00,
2013-02-04 03:32:00,28.0,17.0,30.04,SSE,153,3.0,9.0,63,0.00,,,0.23,,2013-02-04 03:32:00,
2013-02-04 03:41:00,28.0,17.0,30.04,SSE,153,3.0,9.0,63,0.00,,,0.23,,2013-02-04 03:41:00,
2013-02-04 03:51:00,28.0,17.0,30.03,SSE,157,4.0,7.0,64,0.00,,,0.23,,2013-02-04 03:51:00,
2013-02-04 04:01:00,28.0,18.0,30.02,SE,146,4.0,7.0,66,0.00,,,0.23,,2013-02-04 04:01:00,
2013-02-04 04:11:00,28.0,18.0,30.02,SE,146,4.0,7.0,66,0.00,,,0.23,,2013-02-04 04:11:00,
2013-02-04 04:21:00,28.0,18.0,30.02,ESE,120,5.0,9.0,66,0.00,,,0.23,,2013-02-04 04:21:00,
2013-02-04 04:32:00,28.0,20.0,30.01,SE,139,5.0,9.0,72,0.00,,,0.23,,2013-02-04 04:32:00,
2013-02-04 04:41:00,28.0,20.0,30.01,SE,139,5.0,9.0,72,0.00,,,0.23,,2013-02-04 04:41:00,
2013-02-04 04:52:00,28.0,19.0,30.00,SE,140,6.0,11.0,68,0.00,,,0.23,,2013-02-04 04:52:00,
2013-02-04 05:03:00,28.0,19.0,29.99,SE,128,4.0,12.0,69,0.00,,,0.23,,2013-02-04 05:03:00,
2013-02-04 05:11:00,28.0,19.0,29.99,SE,128,4.0,12.0,69,0.00,,,0.23,,2013-02-04 05:11:00,
2013-02-04 05:22:00,28.0,20.0,29.99,SE,133,5.0,8.0,70,0.00,,,0.23,,2013-02-04 05:22:00,
2013-02-04 05:33:00,28.0,20.0,29.98,SE,135,4.0,9.0,71,0.00,,,0.23,,2013-02-04 05:33:00,
2013-02-04 05:42:00,28.0,20.0,29.98,SE,135,4.0,9.0,71,0.00,,,0.23,,2013-02-04 05:42:00,
2013-02-04 05:52:00,28.0,20.0,29.98,SSE,152,6.0,11.0,71,0.00,,,0.23,,2013-02-04 05:52:00,
2013-02-04 06:02:00,28.0,20.0,29.97,SSE,148,5.0,12.0,72,0.00,,,0.23,,2013-02-04 06:02:00,
2013-02-04 06:11:00,28.0,20.0,29.97,SSE,148,5.0,12.0,72,0.00,,,0.23,,2013-02-04 06:11:00,
2013-02-04 06:21:00,28.0,20.0,29.96,SSE,148,6.0,13.0,72,0.00,,,0.23,,2013-02-04 06:21:00,
2013-02-04 06:32:00,28.0,20.0,29.96,SSE,148,7.0,10.0,72,0.00,,,0.23,,2013-02-04 06:32:00,
2013-02-04 06:41:00,28.0,20.0,29.96,SSE,148,7.0,10.0,72,0.00,,,0.23,,2013-02-04 06:41:00,
2013-02-04 06:51:00,28.0,20.0,29.95,SE,139,6.0,11.0,73,0.00,,,0.23,,2013-02-04 06:51:00,
2013-02-04 07:02:00,28.0,21.0,29.95,SSE,157,5.0,10.0,74,0.00,,,0.23,,2013-02-04 07:02:00,
2013-02-04 07:11:00,28.0,21.0,29.94,SE,140,5.0,9.0,74,0.00,,,0.23,,2013-02-04 07:11:00,
2013-02-04 07:21:00,28.0,21.0,29.94,SE,140,5.0,9.0,74,0.00,,,0.23,,2013-02-04 07:21:00,
2013-02-04 07:32:00,28.0,21.0,29.93,SSE,151,5.0,13.0,75,0.00,,,0.23,,2013-02-04 07:32:00,
2013-02-04 07:42:00,28.0,21.0,29.93,SSE,151,5.0,13.0,75,0.00,,,0.23,,2013-02-04 07:42:00,
2013-02-04 07:52:00,28.0,21.0,29.92,SE,143,4.0,12.0,75,0.00,,,0.23,,2013-02-04 07:52:00,
2013-02-04 08:01:00,28.0,21.0,29.92,SE,138,6.0,12.0,76,0.00,,,0.23,,2013-02-04 08:01:00,
2013-02-04 08:11:00,28.0,21.0,29.92,SE,138,6.0,12.0,76,0.00,,,0.23,,2013-02-04 08:11:00,
2013-02-04 08:21:00,28.0,21.0,29.91,SSE,153,5.0,9.0,76,0.00,,,0.23,,2013-02-04 08:21:00,
2013-02-04 08:31:00,28.0,21.0,29.91,SE,140,5.0,11.0,76,0.00,,,0.23,,2013-02-04 08:31:00,
2013-02-04 08:42:00,28.0,21.0,29.91,SE,140,5.0,11.0,76,0.00,,,0.23,,2013-02-04 08:42:00,
2013-02-04 08:52:00,28.0,21.0,29.90,SSE,155,4.0,10.0,76,0.00,,,0.23,,2013-02-04 08:52:00,
2013-02-04 09:02:00,28.0,21.0,29.90,SE,130,6.0,8.0,75,0.00,,,0.23,,2013-02-04 09:02:00,
2013-02-04 09:11:00,28.0,21.0,29.90,SE,130,6.0,8.0,75,0.00,,,0.23,,2013-02-04 09:11:00,
2013-02-04 09:21:00,29.0,22.0,29.89,SSE,149,5.0,10.0,75,0.00,,,0.23,,2013-02-04 09:21:00,
2013-02-04 09:31:00,29.0,22.0,29.88,SSE,149,6.0,10.0,75,0.00,,,0.23,,2013-02-04 09:31:00,
2013-02-04 09:41:00,29.0,22.0,29.88,SSE,149,6.0,10.0,75,0.00,,,0.23,,2013-02-04 09:41:00,
2013-02-04 09:51:00,29.0,22.0,29.88,SSE,156,6.0,9.0,75,0.00,,,0.23,,2013-02-04 09:51:00,
2013-02-04 10:01:00,29.0,22.0,29.86,SSE,150,6.0,10.0,75,0.00,,,0.23,,2013-02-04 10:01:00,
2013-02-04 10:11:00,29.0,22.0,29.86,SSE,150,6.0,10.0,75,0.00,,,0.23,,2013-02-04 10:11:00,
2013-02-04 10:21:00,30.0,23.0,29.85,SE,140,6.0,11.0,75,0.00,,,0.23,,2013-02-04 10:21:00,
2013-02-04 10:32:00,30.0,23.0,29.85,SSE,155,6.0,11.0,75,0.00,,,0.23,,2013-02-04 10:32:00,
2013-02-04 10:41:00,30.0,23.0,29.85,SSE,155,6.0,11.0,75,0.00,,,0.23,,2013-02-04 10:41:00,
2013-02-04 10:51:00,30.0,23.0,29.84,SE,144,6.0,12.0,74,0.00,,,0.23,,2013-02-04 10:51:00,
2013-02-04 11:02:00,31.0,24.0,29.83,SE,146,5.0,9.0,74,0.00,,,0.23,,2013-02-04 11:02:00,
2013-02-04 11:11:00,31.0,24.0,29.83,SE,146,5.0,9.0,74,0.00,,,0.23,,2013-02-04 11:11:00,
2013-02-04 11:22:00,31.0,24.0,29.83,SSE,152,4.0,8.0,74,0.00,,,0.23,,2013-02-04 11:22:00,
2013-02-04 11:32:00,31.0,24.0,29.83,SSE,162,3.0,8.0,74,0.00,,,0.23,,2013-02-04 11:32:00,
2013-02-04 11:42:00,31.0,24.0,29.83,SSE,162,3.0,8.0,74,0.00,,,0.23,,2013-02-04 11:42:00,
2013-02-04 11:52:00,32.0,24.0,29.83,South,174,4.0,9.0,73,0.00,,,0.23,,2013-02-04 11:52:00,
2013-02-04 12:02:00,32.0,24.0,29.82,SE,140,4.0,7.0,72,0.00,,,0.23,,2013-02-04 12:02:00,
2013-02-04 12:12:00,32.0,24.0,29.82,SE,140,4.0,7.0,72,0.00,,,0.23,,2013-02-04 12:12:00,
2013-02-04 12:22:00,33.0,25.0,29.81,SSE,150,5.0,8.0,72,0.00,,,0.23,,2013-02-04 12:22:00,
2013-02-04 12:32:00,33.0,25.0,29.81,SSE,151,5.0,10.0,72,0.00,,,0.23,,2013-02-04 12:32:00,
2013-02-04 12:42:00,33.0,25.0,29.81,SSE,151,5.0,10.0,72,0.00,,,0.23,,2013-02-04 12:42:00,
2013-02-04 12:52:00,33.0,25.0,29.81,SSE,157,5.0,9.0,72,0.00,,,0.23,,2013-02-04 12:52:00,
2013-02-04 13:02:00,34.0,26.0,29.80,SSE,150,6.0,9.0,71,0.00,,,0.23,,2013-02-04 13:02:00,
2013-02-04 13:12:00,34.0,25.0,29.80,SSE,149,4.0,8.0,70,0.00,,,0.23,,2013-02-04 13:12:00,
2013-02-04 13:21:00,34.0,25.0,29.80,SSE,149,4.0,8.0,70,0.00,,,0.23,,2013-02-04 13:21:00,
2013-02-04 13:33:00,35.0,26.0,29.79,SE,145,4.0,6.0,70,0.00,,,0.23,,2013-02-04 13:33:00,
2013-02-04 13:42:00,35.0,26.0,29.79,SE,145,4.0,6.0,70,0.00,,,0.23,,2013-02-04 13:42:00,
2013-02-04 13:51:00,35.0,26.0,29.79,SSE,159,4.0,8.0,70,0.00,,,0.23,,2013-02-04 13:51:00,
2013-02-04 14:03:00,35.0,26.0,29.80,SSE,155,0.0,3.0,70,0.00,,,0.23,,2013-02-04 14:03:00,
2013-02-04 14:11:00,35.0,26.0,29.80,SSE,155,0.0,3.0,70,0.00,,,0.23,,2013-02-04 14:11:00,
2013-02-04 14:22:00,35.0,27.0,29.81,SSE,155,0.0,0.0,72,0.00,,,0.23,,2013-02-04 14:22:00,
2013-02-04 14:32:00,36.0,28.0,29.82,SSE,155,0.0,3.0,72,0.00,,,0.23,,2013-02-04 14:32:00,
2013-02-04 14:42:00,36.0,28.0,29.82,SSE,155,0.0,3.0,72,0.00,,,0.23,,2013-02-04 14:42:00,
2013-02-04 14:52:00,36.0,28.0,29.82,SSE,155,0.0,0.0,71,0.00,,,0.23,,2013-02-04 14:52:00,
2013-02-04 15:03:00,37.0,28.0,29.81,SSE,155,0.0,0.0,69,0.00,,,0.23,,2013-02-04 15:03:00,
2013-02-04 15:12:00,37.0,28.0,29.81,SSE,155,0.0,0.0,69,0.00,,,0.23,,2013-02-04 15:12:00,
2013-02-04 15:23:00,38.0,28.0,29.81,SSE,155,0.0,0.0,67,0.00,,,0.23,,2013-02-04 15:23:00,
2013-02-04 15:33:00,39.0,29.0,29.81,SSE,155,0.0,0.0,66,0.00,,,0.23,,2013-02-04 15:33:00,
2013-02-04 15:43:00,39.0,29.0,29.81,SSE,155,0.0,0.0,66,0.00,,,0.23,,2013-02-04 15:43:00,
2013-02-04 15:52:00,40.0,29.0,29.80,SSE,155,1.0,3.0,65,0.00,,,0.23,,2013-02-04 15:52:00,
2013-02-04 16:03:00,42.0,29.0,29.80,SSW,202,3.0,6.0,59,0.01,,,0.24,,2013-02-04 16:03:00,
2013-02-04 16:11:00,42.0,29.0,29.80,SSW,202,3.0,6.0,59,0.01,,,0.24,,2013-02-04 16:11:00,
2013-02-04 16:22:00,43.0,29.0,29.80,SSW,203,2.0,6.0,58,0.01,,,0.24,,2013-02-04 16:22:00,
2013-02-04 16:33:00,44.0,30.0,29.79,SSW,197,2.0,6.0,58,0.01,,,0.24,,2013-02-04 16:33:00,
2013-02-04 16:42:00,44.0,30.0,29.79,SSW,197,2.0,6.0,58,0.01,,,0.24,,2013-02-04 16:42:00,
2013-02-04 16:51:00,45.0,31.0,29.79,SSW,201,4.0,7.0,57,0.02,,,0.25,,2013-02-04 16:51:00,
2013-02-04 17:02:00,49.0,33.0,29.79,SW,231,5.0,9.0,53,0.01,,,0.25,,2013-02-04 17:02:00,
2013-02-04 17:11:00,49.0,33.0,29.79,SW,231,5.0,9.0,53,0.01,,,0.25,,2013-02-04 17:11:00,
2013-02-04 17:21:00,49.0,32.0,29.78,SW,230,5.0,14.0,51,0.01,,,0.25,,2013-02-04 17:21:00,
2013-02-04 17:32:00,50.0,33.0,29.78,SW,217,5.0,11.0,52,0.01,,,0.23,,2013-02-04 17:32:00,
2013-02-04 17:42:00,50.0,33.0,29.78,SW,217,5.0,11.0,52,0.01,,,0.23,,2013-02-04 17:42:00,
2013-02-04 17:51:00,51.0,34.0,29.77,SW,217,2.0,6.0,52,0.00,,,0.23,,2013-02-04 17:51:00,
2013-02-04 18:03:00,54.0,35.0,29.76,SW,215,3.0,9.0,48,0.00,,,0.23,,2013-02-04 18:03:00,
2013-02-04 18:11:00,54.0,35.0,29.76,SW,215,3.0,9.0,48,0.00,,,0.23,,2013-02-04 18:11:00,
2013-02-04 18:22:00,56.0,36.0,29.76,SSW,200,5.0,12.0,46,0.01,,,0.24,,2013-02-04 18:22:00,
2013-02-04 18:32:00,57.0,36.0,29.75,WSW,254,5.0,11.0,46,0.01,,,0.19,,2013-02-04 18:32:00,
2013-02-04 18:42:00,57.0,36.0,29.75,WSW,254,5.0,11.0,46,0.01,,,0.19,,2013-02-04 18:42:00,
2013-02-04 18:52:00,56.0,36.0,29.75,WSW,240,4.0,17.0,46,0.01,,,0.19,,2013-02-04 18:52:00,
2013-02-04 19:02:00,57.0,36.0,29.75,West,276,4.0,12.0,45,0.01,,,0.19,,2013-02-04 19:02:00,
2013-02-04 19:11:00,57.0,36.0,29.75,West,276,4.0,12.0,45,0.01,,,0.19,,2013-02-04 19:11:00,
2013-02-04 19:22:00,57.0,36.0,29.75,West,277,5.0,17.0,46,0.00,,,0.19,,2013-02-04 19:22:00,
2013-02-04 19:32:00,58.0,38.0,29.74,NNW,346,6.0,15.0,48,0.00,,,0.12,,2013-02-04 19:32:00,
2013-02-04 19:42:00,58.0,38.0,29.74,NNW,346,6.0,15.0,48,0.00,,,0.12,,2013-02-04 19:42:00,
2013-02-04 19:51:00,57.0,36.0,29.74,North,355,6.0,15.0,46,0.00,,,0.12,,2013-02-04 19:51:00,
2013-02-04 20:02:00,56.0,37.0,29.75,WNW,296,4.0,11.0,49,0.00,,,0.12,,2013-02-04 20:02:00,
2013-02-04 20:12:00,56.0,37.0,29.75,WNW,296,4.0,11.0,49,0.00,,,0.12,,2013-02-04 20:12:00,
2013-02-04 20:21:00,56.0,37.0,29.75,NNW,336,5.0,11.0,49,0.00,,,0.12,,2013-02-04 20:21:00,
2013-02-04 20:32:00,55.0,37.0,29.75,NNW,338,5.0,14.0,51,0.00,,,0.08,,2013-02-04 20:32:00,
2013-02-04 20:42:00,55.0,37.0,29.75,NNW,338,5.0,14.0,51,0.00,,,0.08,,2013-02-04 20:42:00,
2013-02-04 20:52:00,55.0,38.0,29.75,NW,322,6.0,14.0,52,0.00,,,0.08,,2013-02-04 20:52:00,
2013-02-04 21:02:00,55.0,38.0,29.75,NW,304,5.0,13.0,53,0.00,,,0.08,,2013-02-04 21:02:00,
2013-02-04 21:11:00,55.0,38.0,29.75,NW,304,5.0,13.0,53,0.00,,,0.08,,2013-02-04 21:11:00,
2013-02-04 21:22:00,54.0,37.0,29.76,NW,304,7.0,16.0,52,0.00,,,0.08,,2013-02-04 21:22:00,
2013-02-04 21:32:00,53.0,36.0,29.76,NNW,330,8.0,14.0,52,0.00,,,0.06,,2013-02-04 21:32:00,
2013-02-04 21:42:00,53.0,36.0,29.76,NNW,330,8.0,14.0,52,0.00,,,0.06,,2013-02-04 21:42:00,
2013-02-04 21:51:00,53.0,35.0,29.76,NNW,340,6.0,17.0,51,0.00,,,0.06,,2013-02-04 21:51:00,
2013-02-04 22:02:00,51.0,34.0,29.76,North,355,7.0,13.0,53,0.00,,,0.06,,2013-02-04 22:02:00,
2013-02-04 22:12:00,51.0,34.0,29.76,North,355,7.0,13.0,53,0.00,,,0.06,,2013-02-04 22:12:00,
2013-02-04 22:21:00,51.0,36.0,29.77,NW,321,9.0,18.0,56,0.00,,,0.06,,2013-02-04 22:21:00,
2013-02-04 22:32:00,48.0,34.0,29.77,NW,316,9.0,19.0,58,0.00,,,0.04,,2013-02-04 22:32:00,
2013-02-04 22:42:00,48.0,34.0,29.77,NW,316,9.0,19.0,58,0.00,,,0.04,,2013-02-04 22:42:00,
2013-02-04 22:51:00,48.0,35.0,29.78,NNW,348,9.0,17.0,60,0.00,,,0.04,,2013-02-04 22:51:00,
2013-02-04 23:01:00,46.0,34.0,29.79,NNW,327,10.0,16.0,62,0.00,,,0.04,,2013-02-04 23:01:00,
2013-02-04 23:11:00,46.0,34.0,29.79,NNW,327,10.0,16.0,62,0.00,,,0.04,,2013-02-04 23:11:00,
2013-02-04 23:21:00,45.0,33.0,29.79,NNW,341,6.0,12.0,63,0.00,,,0.04,,2013-02-04 23:21:00,
2013-02-04 23:32:00,44.0,33.0,29.80,NNW,338,5.0,12.0,65,0.00,,,0.03,,2013-02-04 23:32:00,
2013-02-04 23:42:00,44.0,33.0,29.80,NNW,338,5.0,12.0,65,0.00,,,0.03,,2013-02-04 23:42:00,
2013-02-04 23:52:00,43.0,32.0,29.81,North,355,5.0,12.0,66,0.00,,,0.03,,2013-02-04 23:52:00,